Time,TemperatureF,DewpointF,PressureIn,WindDirection,WindDirectionDegrees,WindSpeedMPH,WindSpeedGustMPH,Humidity,HourlyPrecipIn,Conditions,Clouds,dailyrainin,SolarRadiationWatts/m^2,SoftwareType,DateUTC
2013-09-07 00:14:00,57.0,52.0,-100.00,SW,224,7.0,13.0,82,0.00,,,-99.99,0.000000,,2013-09-07 04:14:00,
2013-09-07 00:24:00,57.0,52.0,-100.00,SW,224,7.0,13.0,82,0.00,,,-99.99,0.000000,,2013-09-07 04:24:00,
2013-09-07 00:34:00,57.0,52.0,-100.00,SW,224,7.0,13.0,82,0.00,,,-99.99,0.000000,,2013-09-07 04:34:00,
2013-09-07 01:13:00,57.0,53.0,-100.00,SW,226,6.0,12.0,86,0.00,,,0.00,0.000000,,2013-09-07 05:13:00,
2013-09-07 01:23:00,57.0,53.0,-100.00,SW,226,6.0,12.0,86,0.00,,,0.00,0.000000,,2013-09-07 05:23:00,
2013-09-07 01:33:00,57.0,53.0,-100.00,SW,226,6.0,12.0,86,0.00,,,0.00,0.000000,,2013-09-07 05:33:00,
2013-09-07 02:13:00,57.0,53.0,-100.00,SW,222,6.0,12.0,88,0.00,,,-99.99,0.000000,,2013-09-07 06:13:00,
2013-09-07 02:22:00,57.0,53.0,-100.00,SW,222,6.0,12.0,88,0.00,,,-99.99,0.000000,,2013-09-07 06:22:00,
2013-09-07 02:33:00,57.0,53.0,-100.00,SW,222,6.0,12.0,88,0.00,,,-99.99,0.000000,,2013-09-07 06:33:00,
2013-09-07 03:12:00,57.0,54.0,-100.00,SW,219,7.0,11.0,90,0.00,,,0.00,0.000000,,2013-09-07 07:12:00,
2013-09-07 03:22:00,57.0,54.0,-100.00,SW,219,7.0,11.0,90,0.00,,,0.00,0.000000,,2013-09-07 07:22:00,
2013-09-07 03:33:00,57.0,54.0,-100.00,SW,219,7.0,11.0,90,0.00,,,0.00,0.000000,,2013-09-07 07:33:00,
2013-09-07 04:12:00,57.0,53.0,-100.00,SW,228,7.0,13.0,88,0.00,,,0.00,0.000000,,2013-09-07 08:12:00,
2013-09-07 04:22:00,57.0,53.0,-100.00,SW,228,7.0,13.0,88,0.00,,,0.00,0.000000,,2013-09-07 08:22:00,
2013-09-07 04:32:00,57.0,53.0,-100.00,SW,228,7.0,13.0,88,0.00,,,0.00,0.000000,,2013-09-07 08:32:00,
2013-09-07 05:12:00,57.0,53.0,-100.00,SW,221,7.0,13.0,88,0.00,,,0.00,0.000000,,2013-09-07 09:12:00,
2013-09-07 05:21:00,57.0,53.0,-100.00,SW,221,7.0,13.0,88,0.00,,,0.00,0.000000,,2013-09-07 09:21:00,
2013-09-07 05:32:00,57.0,53.0,-100.00,SW,221,7.0,13.0,88,0.00,,,0.00,0.000000,,2013-09-07 09:32:00,
2013-09-07 06:11:00,57.0,54.0,-100.00,SW,226,6.0,13.0,89,0.00,,,-99.99,0.000000,,2013-09-07 10:11:00,
2013-09-07 06:21:00,57.0,54.0,-100.00,SW,226,6.0,13.0,89,0.00,,,-99.99,0.000000,,2013-09-07 10:21:00,
2013-09-07 06:31:00,57.0,54.0,-100.00,SW,226,6.0,13.0,89,0.00,,,-99.99,0.000000,,2013-09-07 10:31:00,
2013-09-07 07:13:00,57.0,54.0,-100.00,SW,222,7.0,12.0,89,0.00,,,0.00,7.000000,,2013-09-07 11:13:00,
2013-09-07 07:23:00,57.0,54.0,-100.00,SW,222,7.0,12.0,89,0.00,,,0.00,7.000000,,2013-09-07 11:23:00,
2013-09-07 07:33:00,57.0,54.0,-100.00,SW,222,7.0,12.0,89,0.00,,,0.00,7.000000,,2013-09-07 11:33:00,
2013-09-07 08:13:00,60.0,55.0,-100.00,SW,215,7.0,12.0,84,0.00,,,0.00,62.000000,,2013-09-07 12:13:00,
2013-09-07 08:22:00,60.0,55.0,-100.00,SW,215,7.0,12.0,84,0.00,,,0.00,62.000000,,2013-09-07 12:22:00,
2013-09-07 08:32:00,60.0,55.0,-100.00,SW,215,7.0,12.0,84,0.00,,,0.00,62.000000,,2013-09-07 12:32:00,
2013-09-07 09:12:00,59.0,54.0,-100.00,SW,218,7.0,13.0,84,0.00,,,0.00,105.000000,,2013-09-07 13:12:00,
2013-09-07 09:21:00,59.0,54.0,-100.00,SW,218,7.0,13.0,84,0.00,,,0.00,105.000000,,2013-09-07 13:21:00,
2013-09-07 09:32:00,59.0,54.0,-100.00,SW,218,7.0,13.0,84,0.00,,,0.00,105.000000,,2013-09-07 13:32:00,
2013-09-07 10:11:00,64.0,55.0,-100.00,WSW,237,8.0,17.0,73,0.00,,,0.00,382.000000,,2013-09-07 14:11:00,
2013-09-07 10:22:00,64.0,55.0,-100.00,WSW,237,8.0,17.0,73,0.00,,,0.00,382.000000,,2013-09-07 14:22:00,
2013-09-07 10:32:00,64.0,55.0,-100.00,WSW,237,8.0,17.0,73,0.00,,,0.00,382.000000,,2013-09-07 14:32:00,
2013-09-07 11:11:00,65.0,55.0,-100.00,SW,226,8.0,16.0,69,0.00,,,0.00,639.000000,,2013-09-07 15:11:00,
2013-09-07 11:23:00,65.0,55.0,-100.00,SW,226,8.0,16.0,69,0.00,,,0.00,639.000000,,2013-09-07 15:23:00,
2013-09-07 11:34:00,65.0,55.0,-100.00,SW,226,8.0,16.0,69,0.00,,,0.00,639.000000,,2013-09-07 15:34:00,
2013-09-07 12:13:00,66.0,56.0,-100.00,WSW,244,7.0,14.0,70,0.00,,,0.00,775.000000,,2013-09-07 16:13:00,
2013-09-07 12:24:00,66.0,56.0,-100.00,WSW,244,7.0,14.0,70,0.00,,,0.00,775.000000,,2013-09-07 16:24:00,
2013-09-07 12:34:00,66.0,56.0,-100.00,WSW,244,7.0,14.0,70,0.00,,,0.00,775.000000,,2013-09-07 16:34:00,
2013-09-07 13:12:00,66.0,56.0,-100.00,SW,217,9.0,17.0,71,0.00,,,0.00,666.000000,,2013-09-07 17:12:00,
2013-09-07 13:24:00,66.0,56.0,-100.00,SW,217,9.0,17.0,71,0.00,,,0.00,666.000000,,2013-09-07 17:24:00,
2013-09-07 13:34:00,66.0,56.0,-100.00,SW,217,9.0,17.0,71,0.00,,,0.00,666.000000,,2013-09-07 17:34:00,
2013-09-07 14:13:00,67.0,57.0,-100.00,WSW,237,7.0,17.0,71,0.00,,,0.00,707.000000,,2013-09-07 18:13:00,
2013-09-07 14:22:00,67.0,57.0,-100.00,WSW,237,7.0,17.0,71,0.00,,,0.00,707.000000,,2013-09-07 18:22:00,
2013-09-07 14:32:00,67.0,57.0,-100.00,WSW,237,7.0,17.0,71,0.00,,,0.00,707.000000,,2013-09-07 18:32:00,
2013-09-07 15:11:00,66.0,56.0,-100.00,SW,233,9.0,19.0,69,0.00,,,0.00,806.000000,,2013-09-07 19:11:00,
2013-09-07 15:22:00,66.0,56.0,-100.00,SW,233,9.0,19.0,69,0.00,,,0.00,806.000000,,2013-09-07 19:22:00,
2013-09-07 15:32:00,66.0,56.0,-100.00,SW,233,9.0,19.0,69,0.00,,,0.00,806.000000,,2013-09-07 19:32:00,
2013-09-07 16:12:00,64.0,54.0,-100.00,SW,229,10.0,19.0,70,0.00,,,0.00,496.000000,,2013-09-07 20:12:00,
2013-09-07 16:22:00,64.0,54.0,-100.00,SW,229,10.0,19.0,70,0.00,,,0.00,496.000000,,2013-09-07 20:22:00,
2013-09-07 16:32:00,64.0,54.0,-100.00,SW,229,10.0,19.0,70,0.00,,,0.00,496.000000,,2013-09-07 20:32:00,
2013-09-07 17:12:00,63.0,55.0,-100.00,SW,233,7.0,17.0,75,0.00,,,0.00,351.000000,,2013-09-07 21:12:00,
2013-09-07 17:22:00,63.0,55.0,-100.00,SW,233,7.0,17.0,75,0.00,,,0.00,351.000000,,2013-09-07 21:22:00,
2013-09-07 17:34:00,63.0,55.0,-100.00,SW,233,7.0,17.0,75,0.00,,,0.00,351.000000,,2013-09-07 21:34:00,
2013-09-07 18:13:00,61.0,55.0,-100.00,SW,229,7.0,14.0,82,0.00,,,0.00,96.000000,,2013-09-07 22:13:00,
2013-09-07 18:24:00,61.0,55.0,-100.00,SW,229,7.0,14.0,82,0.00,,,0.00,96.000000,,2013-09-07 22:24:00,
2013-09-07 18:33:00,61.0,55.0,-100.00,SW,229,7.0,14.0,82,0.00,,,0.00,96.000000,,2013-09-07 22:33:00,
2013-09-07 19:12:00,61.0,56.0,-100.00,SSW,213,8.0,15.0,84,0.00,,,0.00,39.000000,,2013-09-07 23:12:00,
2013-09-07 19:23:00,61.0,56.0,-100.00,SSW,213,8.0,15.0,84,0.00,,,0.00,39.000000,,2013-09-07 23:23:00,
2013-09-07 19:34:00,61.0,56.0,-100.00,SSW,213,8.0,15.0,84,0.00,,,0.00,39.000000,,2013-09-07 23:34:00,
2013-09-07 20:11:00,61.0,-99.9,-100.00,SW,227,7.0,-999.0,-999,0.00,,,0.00,,,2013-09-08 00:11:00,
2013-09-07 20:22:00,61.0,-99.9,-100.00,SW,227,7.0,-999.0,-999,0.00,,,0.00,,,2013-09-08 00:22:00,
2013-09-07 20:33:00,61.0,-99.9,-100.00,SW,227,7.0,-999.0,-999,0.00,,,0.00,,,2013-09-08 00:33:00,
2013-09-07 21:11:00,61.0,56.0,-100.00,SSW,211,7.0,13.0,85,0.00,,,0.00,0.000000,,2013-09-08 01:11:00,
2013-09-07 21:22:00,61.0,56.0,-100.00,SSW,211,7.0,13.0,85,0.00,,,0.00,0.000000,,2013-09-08 01:22:00,
2013-09-07 21:32:00,61.0,56.0,-100.00,SSW,211,7.0,13.0,85,0.00,,,0.00,0.000000,,2013-09-08 01:32:00,
2013-09-07 22:12:00,61.0,57.0,-100.00,SW,219,7.0,13.0,87,0.00,,,0.00,0.000000,,2013-09-08 02:12:00,
2013-09-07 22:23:00,61.0,57.0,-100.00,SW,219,7.0,13.0,87,0.00,,,0.00,0.000000,,2013-09-08 02:23:00,
2013-09-07 22:32:00,61.0,57.0,-100.00,SW,219,7.0,13.0,87,0.00,,,0.00,0.000000,,2013-09-08 02:32:00,
2013-09-07 23:12:00,60.0,58.0,-100.00,SW,223,4.0,13.0,94,0.00,,,0.00,0.000000,,2013-09-08 03:12:00,
2013-09-07 23:23:00,60.0,58.0,-100.00,SW,223,4.0,13.0,94,0.00,,,0.00,0.000000,,2013-09-08 03:23:00,
2013-09-07 23:34:00,60.0,58.0,-100.00,SW,223,4.0,13.0,94,0.00,,,0.00,0.000000,,2013-09-08 03:34:00,